Location: Heisede
(52.2582°N, 9.8523°E)
Time: 00:04:15
(UTC+00:00)

Cosmos 2181 Rocket - Pass Details

Date: 13 January 2026
Orbit: 952 x 1013 km, 82.9° (Epoch: 9 February)

Event Time Altitude Azimuth Distance (km) Brightness Sun altitude
Rises 04:13:20 0° 350° (N) 3,706 7.0 -28.3°
Reaches altitude 10° 04:15:53 10° 354° (N) 2,762 6.3 -27.9°
Maximum altitude 04:22:12 65° 76° (ENE) 1,099 4.4 -27.0°
Drops below altitude 10° 04:28:33 10° 158° (SSE) 2,780 6.6 -26.0°
Sets 04:31:07 0° 161° (SSE) 3,731 7.3 -25.6°
